Lid_Strength_Index
3 2 2 1 -0 -2 -2 -2 -2 -2 -2 -2 -2 -2 -2 -2 -1 1 4 1 1 -1 -0 2 2 2 2 5 5 8 12 14 12 11 11 11 11 10 8 8 6 6 7 5 2
3 2 1 -1 -2 -2 -2 -2 -2 -2 -2 -2 -2 -2 -2 -2 2 4 -0 -2 -2 -2 2 3 5 4 6 6 6 9 12 13 10 10 10 11 12 12 8 8 8 8 5 3 3
2 2 -0 -2 -2 -2 -2 -2 -2 -2 -2 -2 -2 -1 -1 -1 5 4 -2 -2 -2 -1 1 2 3 5 8 7 7 9 12 10 9 9 10 12 12 11 9 10 7 8 6 4 4
1 -0 -2 -2 -2 -2 -2 -2 -2 -2 -2 -2 -2 -1 -2 1 11 3 -1 -2 -2 -0 2 3 5 7 9 10 7 10 8 8 8 8 9 11 11 12 11 10 10 7 4 4 5
-0 -2 -2 -2 -2 -2 -2 -2 -2 -2 -2 -2 -1 -0 1 5 6 1 -2 -0 -0 1 3 5 7 7 10 9 8 10 9 8 7 8 9 9 12 12 12 11 7 5 4 5 5
-2 -2 -2 -2 -2 -2 -2 -2 -2 -2 -2 -2 -1 -1 3 9 1 1 1 1 1 2 4 4 6 5 8 8 9 9 9 9 8 8 8 10 11 12 11 7 6 6 6 5 4
-2 -2 -2 -2 -2 -2 -2 -2 -2 -2 -2 -2 -1 0 4 7 2 1 0 1 1 2 4 4 4 6 7 9 7 9 11 10 9 8 10 9 12 12 11 9 7 8 6 5 5
-2 -2 -2 -2 -2 -2 -2 -2 -2 -2 -2 -1 -1 1 7 1 2 2 2 2 1 1 2 2 2 6 7 7 9 11 12 14 10 9 9 10 13 10 10 11 11 7 7 6 5
-2 -2 -2 -2 -2 -2 -2 -2 -2 -2 -2 -1 2 4 8 1 4 2 2 3 2 2 2 2 3 7 8 11 13 12 16 15 13 9 10 11 13 10 10 11 11 11 11 8 5
-2 -2 -1 -1 -2 -2 -2 -2 -2 -1 -0 1 2 6 6 6 3 3 2 2 4 4 5 6 7 10 12 13 17 16 15 14 14 12 11 12 13 11 11 11 11 12 12 12 10
-1 -2 -1 -1 -2 -2 0 2 4 5 5 8 6 6 5 3 2 4 2 3 4 6 10 8 11 15 14 13 12 13 14 14 13 12 13 13 13 12 11 13 11 11 12 11 11
-1 -1 -1 -1 -1 -1 2 5 4 3 8 5 5 5 5 3 7 5 2 7 8 11 9 11 13 11 10 11 12 13 14 15 13 12 13 14 14 13 12 12 13 12 12 11 12
-1 -1 -1 -1 -1 2 4 3 0 2 8 8 5 7 8 5 7 7 4 7 9 11 11 13 11 9 11 12 13 14 15 15 15 14 13 16 18 15 13 13 13 13 13 12 13
-1 -1 -1 -1 3 4 5 1 1 2 16 14 8 7 6 5 8 4 4 6 9 11 11 11 9 10 12 13 13 16 13 14 15 16 19 17 21 17 15 14 14 13 13 13 12
-1 -1 -1 -0 5 6 3 2 4 8 25 12 8 3 6 8 7 7 3 6 10 11 11 12 11 12 13 11 11 13 11 13 14 17 18 19 21 19 17 17 15 15 13 14 14
-1 -1 -1 1 4 3 2 4 8 20 25 17 9 9 10 8 8 7 7 5 6 9 9 11 9 9 10 9 10 11 12 13 15 17 21 19 21 21 19 17 16 14 14 14 15
-1 -1 1 2 6 3 5 9 19 24 17 17 12 10 10 11 10 9 10 11 13 16 16 12 11 9 8 11 10 12 14 19 21 24 23 20 21 19 16 15 15 14 15 15 15
-1 -0 1 2 4 5 8 15 23 25 24 13 11 11 13 11 11 11 11 13 10 12 14 16 17 11 9 11 12 13 14 18 26 25 22 18 21 19 15 14 15 15 15 16 16
-0 4 5 3 4 7 13 21 21 20 12 11 12 15 14 11 11 12 12 13 11 11 15 15 15 10 10 9 9 12 14 13 18 23 20 19 18 15 13 14 15 16 16 17 17
5 6 4 3 5 9 17 18 20 12 9 10 17 13 17 13 13 13 13 10 11 9 10 13 16 11 11 9 9 11 11 15 17 23 24 20 19 19 15 14 15 16 16 17 17
6 8 4 4 7 13 20 23 16 10 9 12 13 16 13 13 13 13 14 12 10 10 9 12 14 14 11 13 14 13 14 14 15 17 21 23 19 13 14 12 12 14 15 16 17
8 11 4 6 15 18 22 15 9 9 9 9 9 11 14 12 13 14 16 13 10 10 13 11 14 16 14 10 9 11 13 13 17 20 18 17 18 11 12 12 11 13 13 14 15
8 7 4 8 19 23 16 12 10 11 10 10 11 9 9 14 16 12 14 10 10 10 11 11 16 19 16 14 12 13 12 12 12 14 18 20 18 11 12 11 12 12 13 14 16
10 14 12 11 12 17 18 17 13 9 10 9 9 9 10 13 12 13 12 10 9 9 8 9 14 18 21 18 16 15 13 13 16 20 17 17 16 13 12 12 12 13 14 14 15
8 15 12 14 15 15 13 13 16 15 10 8 10 10 11 14 12 13 11 11 9 9 10 12 17 15 16 16 15 17 15 13 15 16 20 17 16 13 12 13 13 12 13 15 15
8 11 8 11 11 13 13 14 14 15 11 11 13 11 11 13 12 14 11 11 12 10 11 12 18 17 18 16 14 17 15 15 17 17 18 17 17 12 12 13 13 12 13 14 14
9 8 8 9 12 14 14 11 11 11 9 9 10 11 12 12 11 11 10 11 11 12 12 14 19 21 23 19 18 21 17 14 14 14 16 19 15 14 13 12 12 12 13 13 14